Location: Kalberh�ni
(46.4610°N, 7.2453°E)
Time: 02:26:37
(UTC+00:00)

Lacrosse 4 Rocket - Pass Details

Date: 20 June 2021
Orbit: 543 x 614 km, 68.0° (Epoch: 25 July)

Event Time Altitude Azimuth Distance (km) Brightness Sun altitude
Rises 23:34:48 0° 339° (NNW) 2,757 6.1 -20.1°
Reaches altitude 10° 23:37:53 10° 4° (N) 1,844 5.2 -20.1°
Maximum altitude 23:40:17 15° 39° (NE) 1,542 4.3 -20.1°
Drops below altitude 10° 23:42:39 10° 75° (ENE) 1,822 4.2 -20.1°
Sets 23:45:40 0° 100° (E) 2,704 4.8 -20.0°
